SCP
0 0 0 -0 -0 -0 -0 -0 0 -0 0 0 -0 -0 -0 0 -0 -0 0 0 0 0 -0 -0 -0 -0 -0 -0 -0 -0 -0 -0 -0 -0 -0 -0 -0 -0 -0 -0 -0 -0 -0 -0 -0 -0 -0 -0 -0
0 0 -0 0 0 -0 -0 0 0 0 0 0 0 -0 -0 0 0 -0 0 0 -0 -0 0 -0 -0 0 0 -0 -0 -0 -0 -0 -0 -0 -0 -0 -0 -0 -0 -0 -0 -0 -0 -0 -0 -0 -0 -0 -0
0 0 -0 0 0 0 0 0 -0 0 0 0 0 -0 -0 0 0 0 0 0 -0 -0 -0 -0 -0 -0 -0 -0 -0 -0 -0 -0 -0 -0 -0 -0 -0 -0 -0 -0 -0 -0 -0 -0 -0 -0 -0 -0 -0
0 -0 -0 0 0 -0 -0 0 -0 -0 -0 -0 0 -0 0 0 0 0 0 -0 -0 -0 -0 -0 -0 -0 -0 -0 -0 -0 -0 -0 -0 -0 -0 -0 -0 -0 -0 -0 -0 -0 -0 -0 -0 -0 -0 -0 -0
-0 -0 0 0 0 0 0 -0 -0 -0 -0 0 -0 -0 -0 -0 -0 -0 -0 -0 -0 -0 -0 -0 -0 -0 -0 -0 -0 -0 -0 -0 -0 -0 -0 -0 -0 -0 -0 -0 -0 -0 -0 -0 -0 -0 -0 -0 -0
-0 -0 -0 0 0 0 0 0 -0 -0 -0 -0 -0 -0 -0 0 -0 -0 -0 -0 -0 -0 -0 -0 -0 -0 -0 -0 -0 -0 -0 -0 -0 -0 -0 -0 -0 -0 -0 -0 -0 0 0 -0 -0 -0 -0 -0 -0
-0 -0 0 0 0 0 0 0 -0 -0 0 -0 0 0 0 0 -0 -0 -0 -0 -0 -0 -0 -0 -0 -0 -0 -0 -0 -0 -0 -0 -0 -0 -0 -0 -0 -0 -0 -0 -0 -0 -0 -0 -0 -0 -0 0 0
-0 -0 0 0 0 0 0 0 0 -0 0 0 0 0 0 0 0 -0 -0 -0 -0 -0 -0 -0 -0 0 0 0 -0 -0 -0 -0 -0 -0 -0 -0 -0 -0 -0 -0 -0 -0 -0 -0 -0 -0 0 0 0
0 0 0 0 0 0 0 0 0 0 0 0 0 0 0 -0 0 0 0 0 0 0 0 0 0 0 0 0 0 -0 -0 -0 -0 -0 -0 -0 0 -0 -0 -0 -0 -0 -0 -0 -0 0 0 0 0
0 0 0 0 0 0 0 0 0 0 0 0 0 0 0 0 0 0 0 0 0 0 0 0 0 0 0 0 0 0 0 0 0 0 0 0 0 0 0 0 -0 -0 0 -0 -0 0 0 0 0
0 0 0 0 0 0 0 0 0 0 0 0 0 0 0 0 0 0 0 0 0 0 0 0 0 0 0 0 0 0 0 0 0 0 0 0 0 0 0 0 0 0 0 0 0 0 0 0 0
0 0 0 0 0 0 0 0 0 0 0 0 0 0 0 0 0 0 0 0 0 0 0 0 0 0 0 0 0 0 0 0 0 0 0 0 0 0 0 0 0 0 0 0 0 0 0 0 0
0 0 0 0 0 0 0 0 0 0 0 0 0 0 0 0 0 0 0 0 0 0 0 0 0 0 0 0 0 0 0 0 0 0 0 0 0 0 0 0 0 0 0 0 0 0 0 0 0
0 0 0 0 0 0 0 0 0 0 0 0 0 0 0 0 0 0 0 0 0 0 0 0 0 0 0 0 0 0 0 0 0 0 0 0 0 0 0 0 0 0 0 0 0 0 0 0 0
0 0 0 0 0 0 0 0 0 0 0 0 0 0 0 0 0 0 0 0 0 0 0 0 0 0 0 0 0 0 0 0 0 0 0 0 0 0 0 0 0 0 0 0 0 0 0 0 0
0 0 0 0 0 0 0 0 0 0 0 0 0 0 0 0 0 0 0 0 0 0 0 0 0 0 0 0 0 0 0 0 0 0 0 0 0 0 0 0 0 0 0 0 0 0 0 0 0
0 0 0 0 0 0 0 0 0 0 0 0 0 0 0 0 0 0 0 0 0 0 0 0 0 0 0 0 0 0 0 0 0 0 0 0 0 0 0 0 0 0 0 0 0 0 0 0 0
0 0 0 0 0 0 0 0 0 0 0 0 0 0 0 0 0 0 0 0 0 0 0 0 0 0 0 0 0 0 0 0 0 0 0 0 0 0 0 0 0 0 0 0 0 0 0 0 0
0 0 0 0 0 0 0 0 0 0 0 0 0 0 0 0 0 0 0 0 0 0 0 0 0 0 0 0 0 0 0 0 0 0 0 0 0 0 0 0 0 0 0 0 0 0 0 0 0
0 0 0 0 0 0 0 0 0 0 0 0 0 0 0 0 0 0 0 0 0 0 0 0 0 0 0 0 0 0 0 0 0 0 0 0 0 0 0 0 0 0 0 0 0 0 0 0 0
0 0 0 0 0 0 0 0 0 0 0 0 0 0 0 0 0 0 0 0 0 0 0 0 0 0 0 0 0 0 0 0 0 0 0 0 0 0 0 0 0 0 0 0 0 0 0 0 0
0 0 0 0 0 0 0 -0 0 0 0 0 0 0 0 0 0 0 0 0 0 0 0 0 0 0 0 0 0 0 0 0 0 0 0 0 0 0 0 0 0 0 0 0 0 0 0 0 0
0 0 0 0 0 0 0 0 0 0 0 0 0 0 0 0 0 0 0 0 0 0 0 0 0 0 0 0 0 0 0 0 0 0 0 0 0 0 0 0 0 0 0 0 0 0 0 0 0
0 0 0 0 0 0 0 0 0 0 0 0 0 0 0 0 0 0 0 0 0 0 0 0 0 0 0 0 0 0 0 0 0 0 0 0 0 0 0 0 0 0 0 0 0 0 0 0 0
0 0 0 0 0 0 0 0 0 0 0 0 0 0 0 0 0 0 0 0 0 0 0 0 0 0 0 0 0 0 0 0 0 0 0 0 0 0 0 0 0 0 0 0 0 0 0 0 0
0 0 0 0 0 0 0 0 0 0 0 0 0 0 0 0 0 0 0 0 0 0 0 0 0 0 0 0 0 0 0 0 0 0 0 0 0 0 0 0 0 0 0 0 0 0 0 0 0
0 0 0 0 0 0 0 0 0 0 0 0 0 0 0 0 0 0 0 0 0 0 0 0 0 0 0 0 0 0 0 0 0 0 0 0 0 0 0 0 0 0 0 0 0 0 0 0 0
0 0 0 0 0 0 0 0 0 0 0 0 0 0 0 0 0 0 0 0 0 0 0 0 0 0 0 0 0 0 0 0 0 0 0 0 0 0 0 0 0 0 0 0 0 0 0 0 0
0 0 0 0 0 0 0 0 0 0 0 0 0 0 0 0 0 0 0 0 0 0 0 0 0 0 0 0 0 0 0 0 0 0 0 0 0 0 0 0 0 0 0 0 0 0 0 0 0
0 0 0 0 0 0 0 -0 0 0 0 0 0 0 0 0 0 0 0 0 0 0 0 0 0 0 0 0 0 0 0 0 0 0 0 0 0 0 0 0 0 0 0 0 0 0 0 0 0
Wind_Speed_500mb
1 0 3 7 9 11 3 6 7 6 8 14 41 50 27 24 8 12 14 7 13 17 18 20 20 22 23 22 21 19 18 19 20 20 22 21 16 23 27 31 34 33 26 22 23 22 20 19 18
7 3 5 6 10 9 4 7 16 6 20 46 47 42 34 10 31 25 13 25 18 17 21 25 23 21 20 19 16 16 16 16 17 19 19 17 14 20 23 27 31 31 30 23 22 21 19 18 16
9 7 7 8 6 7 8 6 14 13 10 6 14 24 11 6 14 13 19 29 23 16 17 21 23 16 16 24 17 15 12 13 13 15 15 14 10 16 19 24 27 30 31 27 23 21 20 18 17
6 5 5 10 7 13 15 13 30 19 10 17 26 20 17 9 8 18 25 23 27 19 18 18 24 19 17 16 17 13 12 12 11 11 11 11 9 15 21 25 27 28 29 30 27 24 22 19 16
12 4 8 9 8 8 6 31 31 10 12 17 16 10 15 20 26 25 25 16 32 27 25 18 19 23 13 13 9 7 7 9 8 8 9 9 10 14 19 23 26 27 27 26 27 27 25 23 20
6 5 8 2 8 10 7 14 12 23 20 19 22 16 12 19 25 26 30 26 31 31 24 23 26 28 26 21 15 8 4 5 6 8 8 8 9 10 15 19 24 28 28 25 25 26 26 25 22
7 7 5 7 9 7 9 10 8 21 15 12 14 10 17 26 23 23 25 20 24 31 30 24 31 31 28 23 19 16 11 7 4 4 6 5 4 5 9 18 26 30 31 30 27 28 28 28 25
5 8 8 1 11 7 20 13 12 22 6 12 11 13 13 27 23 19 20 19 17 23 20 21 31 35 34 30 24 18 12 9 7 5 2 2 1 2 7 15 20 24 23 26 29 26 28 27 28
4 8 4 9 10 10 26 9 7 15 19 10 10 14 21 26 25 19 14 18 22 24 23 23 22 25 32 35 27 23 21 16 12 10 9 6 5 4 7 9 15 20 22 23 24 30 35 31 31
8 7 2 5 8 10 20 19 20 10 17 10 20 23 25 27 27 26 24 22 17 19 22 23 22 21 21 31 26 24 25 25 23 21 14 13 10 10 15 2 7 5 13 19 20 24 29 32 34
4 6 4 7 11 11 17 12 6 16 4 15 25 29 26 30 35 33 29 24 21 21 22 22 25 27 28 28 32 27 22 28 24 20 18 18 22 17 8 5 2 5 3 6 12 22 22 26 30
5 3 6 3 4 8 7 10 7 7 11 11 31 29 29 28 28 25 23 20 18 19 17 17 20 22 29 29 30 34 34 28 24 19 24 23 21 16 11 4 6 2 6 13 7 16 19 19 22
3 3 3 3 2 4 2 7 6 10 25 25 27 28 27 27 24 21 19 17 18 18 18 17 18 20 28 35 32 34 33 39 26 24 24 21 15 11 7 6 6 10 13 18 18 14 10 12 14
1 5 6 11 10 7 7 6 4 16 33 30 30 30 28 26 25 23 20 17 18 18 19 21 23 24 28 32 33 32 32 30 30 27 28 24 18 15 17 16 13 21 15 10 12 11 10 10 14
0 5 10 17 16 5 11 11 19 29 38 35 33 32 30 28 28 24 21 20 17 18 18 20 24 27 30 32 35 36 32 30 28 26 21 18 19 17 16 15 13 10 9 10 7 8 12 12 13
2 3 3 6 23 10 11 16 9 36 46 38 36 35 33 32 31 27 22 21 18 18 18 21 24 29 32 36 37 35 32 30 26 19 19 22 21 18 16 12 9 7 5 3 9 13 11 12 10
5 7 12 10 17 9 8 13 5 37 38 38 41 40 38 38 36 31 26 25 20 18 20 24 29 33 37 38 38 34 32 31 28 25 24 27 20 15 14 12 10 9 7 8 8 6 7 8 12
11 8 10 11 14 7 10 20 8 33 38 45 47 46 45 45 42 35 30 28 24 23 23 25 28 36 42 42 40 39 37 33 30 28 29 24 20 18 14 14 13 9 5 3 3 6 11 16 17
6 6 7 9 7 9 17 17 20 47 43 44 54 59 60 57 50 41 34 32 30 29 29 28 35 41 43 44 44 42 39 36 33 33 30 24 22 20 16 15 14 11 7 9 12 14 14 16 19
15 13 17 9 8 10 13 22 19 19 42 64 72 75 73 64 59 51 42 39 37 33 34 37 42 44 46 46 47 43 42 41 38 34 30 27 25 22 19 16 13 12 11 11 12 15 19 21 19
11 12 10 16 3 6 8 13 16 18 50 63 76 80 79 84 75 57 48 46 45 44 44 49 53 53 49 48 47 47 47 42 40 39 38 34 27 23 17 13 12 10 9 9 14 17 21 26 26
14 11 12 11 2 10 7 17 13 12 19 23 72 76 85 87 70 58 53 55 54 52 53 57 55 51 49 48 49 46 46 49 48 44 38 33 26 20 15 11 9 7 10 12 16 21 24 23 25
14 4 6 6 7 1 7 10 11 16 23 32 49 63 83 92 81 70 61 58 56 60 60 59 57 53 53 50 49 50 54 53 51 44 37 31 26 20 15 10 8 7 9 15 20 22 25 29 30
14 10 12 9 5 7 21 19 10 18 24 25 29 59 82 88 81 68 60 60 63 63 62 62 61 58 56 56 55 54 54 52 49 44 37 32 26 20 15 10 7 7 12 16 20 25 27 30 30
9 14 3 6 2 17 12 18 32 15 16 17 25 53 78 87 83 73 71 71 70 72 69 66 64 64 64 62 60 54 48 43 40 40 35 30 25 20 15 9 5 6 9 14 18 21 23 24 24
15 18 12 15 9 9 2 15 12 24 37 35 30 53 78 82 82 80 74 73 73 75 74 72 73 72 69 64 57 54 49 45 42 37 33 28 24 21 14 9 6 3 5 10 14 17 21 22 22
11 17 8 4 3 3 11 15 16 11 15 9 21 56 78 86 86 80 73 72 74 78 80 80 79 74 69 64 60 55 51 47 41 37 32 29 26 20 15 12 7 2 2 6 11 16 18 19 20
14 10 5 2 5 13 10 13 20 10 26 15 17 35 53 72 80 79 74 75 78 80 82 81 79 75 71 66 60 56 52 47 42 37 34 29 25 22 19 16 11 6 2 5 11 15 17 18 21
9 9 8 8 10 10 11 15 13 21 23 26 30 60 70 78 82 80 78 78 83 83 85 85 82 78 74 68 62 58 53 50 45 39 34 30 27 25 23 18 13 9 5 5 10 14 16 19 21
3 14 14 12 14 9 4 43 11 6 7 27 41 60 67 71 77 79 81 83 88 90 91 89 86 83 76 70 65 59 54 51 48 43 38 35 32 30 26 21 18 14 9 7 9 12 16 20 24
Wind_Direction_500mb
49 261 52 27 57 71 59 37 103 77 54 54 87 90 94 68 71 144 127 173 145 166 172 161 145 141 141 139 131 119 107 96 88 79 74 76 62 47 42 41 40 46 51 57 62 66 71 76 78
104 99 41 37 84 74 275 111 82 93 128 111 102 92 68 70 92 120 154 141 159 167 166 168 153 148 151 146 138 123 109 99 86 79 76 83 63 41 43 42 40 42 46 57 54 50 50 53 63
96 30 42 90 92 148 133 149 127 116 125 148 116 83 73 32 82 105 104 141 153 172 152 171 152 146 157 157 153 141 120 107 86 76 73 86 72 47 43 42 42 42 43 49 49 46 45 44 45
54 28 67 78 80 354 126 172 132 129 110 81 100 76 84 41 103 124 117 136 158 166 150 166 155 165 156 161 155 154 141 134 114 97 89 98 75 53 40 37 36 35 35 38 39 39 41 45 52
42 35 48 109 74 84 89 139 141 150 129 104 109 126 96 102 119 123 132 142 162 159 165 184 179 162 184 182 157 161 155 144 121 98 100 93 86 65 46 40 36 33 31 34 38 41 40 40 44
32 46 49 58 134 116 70 103 112 116 125 91 104 104 129 150 157 142 154 157 164 168 181 193 190 179 185 194 187 187 181 161 128 96 100 91 83 55 44 40 34 29 25 32 36 39 43 47 50
80 70 213 102 154 116 146 134 96 130 117 76 121 86 145 172 163 163 164 173 167 186 178 170 187 192 195 201 201 196 190 182 170 120 97 75 66 41 42 43 36 33 31 30 32 37 38 38 38
56 94 327 18 186 178 158 130 91 116 96 112 112 155 169 167 170 175 165 171 174 180 189 181 182 198 204 204 207 210 215 222 202 198 253 301 299 330 67 64 34 22 40 33 30 33 35 33 32
44 59 346 322 143 173 157 126 92 106 133 99 94 142 146 156 165 167 178 179 178 185 193 203 210 208 204 209 209 214 211 224 234 236 233 212 203 188 134 73 54 35 14 18 27 18 23 27 27
72 90 313 349 342 155 160 140 158 133 139 103 112 127 144 159 162 177 194 204 207 206 206 209 216 218 215 205 192 203 211 216 220 221 215 205 189 178 151 4 355 349 13 359 16 27 23 23 20
37 150 307 12 43 117 142 118 123 150 184 193 181 160 160 170 179 191 202 217 226 223 224 227 226 221 214 213 204 191 192 212 205 200 197 191 172 184 210 265 301 1 27 14 18 3 7 9 17
48 98 80 356 28 84 107 138 161 188 159 162 170 165 174 174 182 191 198 210 225 233 228 221 223 224 219 206 198 189 195 207 190 186 191 198 198 198 221 247 290 305 325 326 323 342 345 349 7
122 229 110 172 195 120 140 147 187 172 166 166 168 179 185 187 189 196 205 213 226 243 250 244 232 214 209 202 192 189 196 205 194 192 193 196 189 193 197 208 252 289 299 305 317 324 326 316 345
250 324 273 214 210 213 187 236 224 206 190 185 193 195 196 200 200 201 209 218 230 238 238 233 225 214 202 197 182 183 189 196 192 195 201 205 211 224 236 245 256 281 287 285 307 316 298 307 321
292 334 303 233 199 215 199 287 230 222 194 192 194 201 205 204 208 210 216 221 226 234 237 229 214 204 193 183 178 184 187 187 199 199 195 205 226 231 236 229 235 232 272 274 255 274 294 309 321
170 72 325 258 169 191 151 262 282 203 188 187 200 209 211 212 211 213 219 228 227 226 220 214 201 190 188 177 177 183 187 189 188 186 189 199 210 205 215 231 237 231 210 249 282 286 306 321 340
321 221 213 299 176 131 164 263 200 180 195 195 204 214 214 211 215 216 218 226 226 226 216 203 189 180 175 170 174 179 184 190 194 188 194 193 190 198 194 204 197 205 238 260 264 303 325 340 359
210 218 250 225 219 148 184 258 226 203 207 213 209 212 214 217 220 218 216 219 218 217 210 192 175 165 168 171 173 175 181 181 184 192 185 184 187 184 192 193 195 187 205 239 343 0 12 25 38
225 214 243 261 230 145 217 249 239 227 220 220 215 211 216 217 218 218 215 213 209 206 199 179 168 167 172 174 178 179 184 183 187 183 182 183 174 164 158 154 143 123 110 70 46 33 32 36 52
248 260 268 285 205 166 258 248 254 207 223 222 219 218 219 212 212 214 211 207 202 201 188 176 170 174 175 178 178 181 179 176 181 181 175 165 154 145 139 128 115 98 73 63 44 24 14 17 23
226 205 233 227 243 267 285 270 248 241 232 232 232 231 222 216 214 209 206 202 199 195 187 179 177 179 178 179 181 180 179 179 174 167 160 147 142 137 131 125 110 97 75 45 32 25 16 22 18
238 211 219 241 160 245 152 284 250 242 243 216 233 223 223 213 212 214 207 203 199 194 188 184 182 181 183 184 186 190 186 175 164 159 153 148 146 143 141 129 106 74 52 43 30 25 21 22 25
228 158 191 213 197 331 280 290 262 217 248 248 242 221 215 214 210 208 208 207 197 197 194 189 187 187 189 191 192 187 178 170 162 161 160 157 153 152 145 130 100 72 54 39 31 23 17 14 11
153 78 40 39 69 259 225 216 199 239 234 257 243 221 209 206 205 206 207 202 199 197 197 193 191 191 190 186 182 181 179 174 170 168 168 163 162 159 152 141 119 78 45 34 24 19 11 7 6
121 103 304 318 307 245 217 232 246 247 248 228 227 205 202 201 198 199 199 200 199 198 195 193 191 188 183 179 180 182 184 182 179 175 173 170 168 167 166 157 131 67 34 22 15 7 1 355 353
190 162 167 221 216 261 57 238 250 225 247 262 251 223 195 197 200 202 204 204 200 199 195 192 188 187 183 183 184 184 187 187 182 180 179 178 179 179 175 169 155 96 27 11 5 360 353 346 343
201 208 186 10 59 346 223 276 300 243 271 281 203 191 192 198 200 203 205 204 201 197 194 191 188 188 188 187 189 189 190 191 189 187 187 189 186 185 185 183 190 209 333 2 0 354 348 344 339
155 162 82 58 221 252 258 252 234 213 238 218 211 186 191 197 202 204 206 205 201 197 193 191 192 192 192 193 194 196 196 195 197 198 197 195 197 199 198 202 206 209 246 345 353 355 348 342 334
156 185 190 147 167 214 277 256 204 217 221 207 208 200 199 203 206 206 206 206 202 197 195 195 195 196 196 197 198 199 199 200 201 200 201 205 209 211 212 209 211 220 245 322 350 352 344 340 331
216 180 164 176 217 235 202 262 176 130 266 207 213 208 212 212 210 210 208 206 202 200 200 200 199 200 201 201 202 202 205 206 204 204 207 211 214 216 216 217 221 227 245 296 329 336 339 335 332
Wind_Speed_850mb
1 0 3 7 9 11 3 6 7 6 8 14 41 50 27 24 8 12 14 7 13 17 18 20 20 22 23 22 21 19 18 19 20 20 22 21 16 23 27 31 34 33 26 22 23 22 20 19 18
7 3 5 6 10 9 4 7 16 6 20 46 47 42 34 10 31 25 13 25 18 17 21 25 23 21 20 19 16 16 16 16 17 19 19 17 14 20 23 27 31 31 30 23 22 21 19 18 16
9 7 7 8 6 7 8 6 14 13 10 6 14 24 11 6 14 13 19 29 23 16 17 21 23 16 16 24 17 15 12 13 13 15 15 14 10 16 19 24 27 30 31 27 23 21 20 18 17
6 5 5 10 7 13 15 13 30 19 10 17 26 20 17 9 8 18 25 23 27 19 18 18 24 19 17 16 17 13 12 12 11 11 11 11 9 15 21 25 27 28 29 30 27 24 22 19 16
12 4 8 9 8 8 6 31 31 10 12 17 16 10 15 20 26 25 25 16 32 27 25 18 19 23 13 13 9 7 7 9 8 8 9 9 10 14 19 23 26 27 27 26 27 27 25 23 20
6 5 8 2 8 10 7 14 12 23 20 19 22 16 12 19 25 26 30 26 31 31 24 23 26 28 26 21 15 8 4 5 6 8 8 8 9 10 15 19 24 28 28 25 25 26 26 25 22
7 7 5 7 9 7 9 10 8 21 15 12 14 10 17 26 23 23 25 20 24 31 30 24 31 31 28 23 19 16 11 7 4 4 6 5 4 5 9 18 26 30 31 30 27 28 28 28 25
5 8 8 1 11 7 20 13 12 22 6 12 11 13 13 27 23 19 20 19 17 23 20 21 31 35 34 30 24 18 12 9 7 5 2 2 1 2 7 15 20 24 23 26 29 26 28 27 28
4 8 4 9 10 10 26 9 7 15 19 10 10 14 21 26 25 19 14 18 22 24 23 23 22 25 32 35 27 23 21 16 12 10 9 6 5 4 7 9 15 20 22 23 24 30 35 31 31
8 7 2 5 8 10 20 19 20 10 17 10 20 23 25 27 27 26 24 22 17 19 22 23 22 21 21 31 26 24 25 25 23 21 14 13 10 10 15 2 7 5 13 19 20 24 29 32 34
4 6 4 7 11 11 17 12 6 16 4 15 25 29 26 30 35 33 29 24 21 21 22 22 25 27 28 28 32 27 22 28 24 20 18 18 22 17 8 5 2 5 3 6 12 22 22 26 30
5 3 6 3 4 8 7 10 7 7 11 11 31 29 29 28 28 25 23 20 18 19 17 17 20 22 29 29 30 34 34 28 24 19 24 23 21 16 11 4 6 2 6 13 7 16 19 19 22
3 3 3 3 2 4 2 7 6 10 25 25 27 28 27 27 24 21 19 17 18 18 18 17 18 20 28 35 32 34 33 39 26 24 24 21 15 11 7 6 6 10 13 18 18 14 10 12 14
1 5 6 11 10 7 7 6 4 16 33 30 30 30 28 26 25 23 20 17 18 18 19 21 23 24 28 32 33 32 32 30 30 27 28 24 18 15 17 16 13 21 15 10 12 11 10 10 14
0 5 10 17 16 5 11 11 19 29 38 35 33 32 30 28 28 24 21 20 17 18 18 20 24 27 30 32 35 36 32 30 28 26 21 18 19 17 16 15 13 10 9 10 7 8 12 12 13
2 3 3 6 23 10 11 16 9 36 46 38 36 35 33 32 31 27 22 21 18 18 18 21 24 29 32 36 37 35 32 30 26 19 19 22 21 18 16 12 9 7 5 3 9 13 11 12 10
5 7 12 10 17 9 8 13 5 37 38 38 41 40 38 38 36 31 26 25 20 18 20 24 29 33 37 38 38 34 32 31 28 25 24 27 20 15 14 12 10 9 7 8 8 6 7 8 12
11 8 10 11 14 7 10 20 8 33 38 45 47 46 45 45 42 35 30 28 24 23 23 25 28 36 42 42 40 39 37 33 30 28 29 24 20 18 14 14 13 9 5 3 3 6 11 16 17
6 6 7 9 7 9 17 17 20 47 43 44 54 59 60 57 50 41 34 32 30 29 29 28 35 41 43 44 44 42 39 36 33 33 30 24 22 20 16 15 14 11 7 9 12 14 14 16 19
15 13 17 9 8 10 13 22 19 19 42 64 72 75 73 64 59 51 42 39 37 33 34 37 42 44 46 46 47 43 42 41 38 34 30 27 25 22 19 16 13 12 11 11 12 15 19 21 19
11 12 10 16 3 6 8 13 16 18 50 63 76 80 79 84 75 57 48 46 45 44 44 49 53 53 49 48 47 47 47 42 40 39 38 34 27 23 17 13 12 10 9 9 14 17 21 26 26
14 11 12 11 2 10 7 17 13 12 19 23 72 76 85 87 70 58 53 55 54 52 53 57 55 51 49 48 49 46 46 49 48 44 38 33 26 20 15 11 9 7 10 12 16 21 24 23 25
14 4 6 6 7 1 7 10 11 16 23 32 49 63 83 92 81 70 61 58 56 60 60 59 57 53 53 50 49 50 54 53 51 44 37 31 26 20 15 10 8 7 9 15 20 22 25 29 30
14 10 12 9 5 7 21 19 10 18 24 25 29 59 82 88 81 68 60 60 63 63 62 62 61 58 56 56 55 54 54 52 49 44 37 32 26 20 15 10 7 7 12 16 20 25 27 30 30
9 14 3 6 2 17 12 18 32 15 16 17 25 53 78 87 83 73 71 71 70 72 69 66 64 64 64 62 60 54 48 43 40 40 35 30 25 20 15 9 5 6 9 14 18 21 23 24 24
15 18 12 15 9 9 2 15 12 24 37 35 30 53 78 82 82 80 74 73 73 75 74 72 73 72 69 64 57 54 49 45 42 37 33 28 24 21 14 9 6 3 5 10 14 17 21 22 22
11 17 8 4 3 3 11 15 16 11 15 9 21 56 78 86 86 80 73 72 74 78 80 80 79 74 69 64 60 55 51 47 41 37 32 29 26 20 15 12 7 2 2 6 11 16 18 19 20
14 10 5 2 5 13 10 13 20 10 26 15 17 35 53 72 80 79 74 75 78 80 82 81 79 75 71 66 60 56 52 47 42 37 34 29 25 22 19 16 11 6 2 5 11 15 17 18 21
9 9 8 8 10 10 11 15 13 21 23 26 30 60 70 78 82 80 78 78 83 83 85 85 82 78 74 68 62 58 53 50 45 39 34 30 27 25 23 18 13 9 5 5 10 14 16 19 21
3 14 14 12 14 9 4 43 11 6 7 27 41 60 67 71 77 79 81 83 88 90 91 89 86 83 76 70 65 59 54 51 48 43 38 35 32 30 26 21 18 14 9 7 9 12 16 20 24
Wind_Direction_850mb
49 261 52 27 57 71 59 37 103 77 54 54 87 90 94 68 71 144 127 173 145 166 172 161 145 141 141 139 131 119 107 96 88 79 74 76 62 47 42 41 40 46 51 57 62 66 71 76 78
104 99 41 37 84 74 275 111 82 93 128 111 102 92 68 70 92 120 154 141 159 167 166 168 153 148 151 146 138 123 109 99 86 79 76 83 63 41 43 42 40 42 46 57 54 50 50 53 63
96 30 42 90 92 148 133 149 127 116 125 148 116 83 73 32 82 105 104 141 153 172 152 171 152 146 157 157 153 141 120 107 86 76 73 86 72 47 43 42 42 42 43 49 49 46 45 44 45
54 28 67 78 80 354 126 172 132 129 110 81 100 76 84 41 103 124 117 136 158 166 150 166 155 165 156 161 155 154 141 134 114 97 89 98 75 53 40 37 36 35 35 38 39 39 41 45 52
42 35 48 109 74 84 89 139 141 150 129 104 109 126 96 102 119 123 132 142 162 159 165 184 179 162 184 182 157 161 155 144 121 98 100 93 86 65 46 40 36 33 31 34 38 41 40 40 44
32 46 49 58 134 116 70 103 112 116 125 91 104 104 129 150 157 142 154 157 164 168 181 193 190 179 185 194 187 187 181 161 128 96 100 91 83 55 44 40 34 29 25 32 36 39 43 47 50
80 70 213 102 154 116 146 134 96 130 117 76 121 86 145 172 163 163 164 173 167 186 178 170 187 192 195 201 201 196 190 182 170 120 97 75 66 41 42 43 36 33 31 30 32 37 38 38 38
56 94 327 18 186 178 158 130 91 116 96 112 112 155 169 167 170 175 165 171 174 180 189 181 182 198 204 204 207 210 215 222 202 198 253 301 299 330 67 64 34 22 40 33 30 33 35 33 32
44 59 346 322 143 173 157 126 92 106 133 99 94 142 146 156 165 167 178 179 178 185 193 203 210 208 204 209 209 214 211 224 234 236 233 212 203 188 134 73 54 35 14 18 27 18 23 27 27
72 90 313 349 342 155 160 140 158 133 139 103 112 127 144 159 162 177 194 204 207 206 206 209 216 218 215 205 192 203 211 216 220 221 215 205 189 178 151 4 355 349 13 359 16 27 23 23 20
37 150 307 12 43 117 142 118 123 150 184 193 181 160 160 170 179 191 202 217 226 223 224 227 226 221 214 213 204 191 192 212 205 200 197 191 172 184 210 265 301 1 27 14 18 3 7 9 17
48 98 80 356 28 84 107 138 161 188 159 162 170 165 174 174 182 191 198 210 225 233 228 221 223 224 219 206 198 189 195 207 190 186 191 198 198 198 221 247 290 305 325 326 323 342 345 349 7
122 229 110 172 195 120 140 147 187 172 166 166 168 179 185 187 189 196 205 213 226 243 250 244 232 214 209 202 192 189 196 205 194 192 193 196 189 193 197 208 252 289 299 305 317 324 326 316 345
250 324 273 214 210 213 187 236 224 206 190 185 193 195 196 200 200 201 209 218 230 238 238 233 225 214 202 197 182 183 189 196 192 195 201 205 211 224 236 245 256 281 287 285 307 316 298 307 321
292 334 303 233 199 215 199 287 230 222 194 192 194 201 205 204 208 210 216 221 226 234 237 229 214 204 193 183 178 184 187 187 199 199 195 205 226 231 236 229 235 232 272 274 255 274 294 309 321
170 72 325 258 169 191 151 262 282 203 188 187 200 209 211 212 211 213 219 228 227 226 220 214 201 190 188 177 177 183 187 189 188 186 189 199 210 205 215 231 237 231 210 249 282 286 306 321 340
321 221 213 299 176 131 164 263 200 180 195 195 204 214 214 211 215 216 218 226 226 226 216 203 189 180 175 170 174 179 184 190 194 188 194 193 190 198 194 204 197 205 238 260 264 303 325 340 359
210 218 250 225 219 148 184 258 226 203 207 213 209 212 214 217 220 218 216 219 218 217 210 192 175 165 168 171 173 175 181 181 184 192 185 184 187 184 192 193 195 187 205 239 343 0 12 25 38
225 214 243 261 230 145 217 249 239 227 220 220 215 211 216 217 218 218 215 213 209 206 199 179 168 167 172 174 178 179 184 183 187 183 182 183 174 164 158 154 143 123 110 70 46 33 32 36 52
248 260 268 285 205 166 258 248 254 207 223 222 219 218 219 212 212 214 211 207 202 201 188 176 170 174 175 178 178 181 179 176 181 181 175 165 154 145 139 128 115 98 73 63 44 24 14 17 23
226 205 233 227 243 267 285 270 248 241 232 232 232 231 222 216 214 209 206 202 199 195 187 179 177 179 178 179 181 180 179 179 174 167 160 147 142 137 131 125 110 97 75 45 32 25 16 22 18
238 211 219 241 160 245 152 284 250 242 243 216 233 223 223 213 212 214 207 203 199 194 188 184 182 181 183 184 186 190 186 175 164 159 153 148 146 143 141 129 106 74 52 43 30 25 21 22 25
228 158 191 213 197 331 280 290 262 217 248 248 242 221 215 214 210 208 208 207 197 197 194 189 187 187 189 191 192 187 178 170 162 161 160 157 153 152 145 130 100 72 54 39 31 23 17 14 11
153 78 40 39 69 259 225 216 199 239 234 257 243 221 209 206 205 206 207 202 199 197 197 193 191 191 190 186 182 181 179 174 170 168 168 163 162 159 152 141 119 78 45 34 24 19 11 7 6
121 103 304 318 307 245 217 232 246 247 248 228 227 205 202 201 198 199 199 200 199 198 195 193 191 188 183 179 180 182 184 182 179 175 173 170 168 167 166 157 131 67 34 22 15 7 1 355 353
190 162 167 221 216 261 57 238 250 225 247 262 251 223 195 197 200 202 204 204 200 199 195 192 188 187 183 183 184 184 187 187 182 180 179 178 179 179 175 169 155 96 27 11 5 360 353 346 343
201 208 186 10 59 346 223 276 300 243 271 281 203 191 192 198 200 203 205 204 201 197 194 191 188 188 188 187 189 189 190 191 189 187 187 189 186 185 185 183 190 209 333 2 0 354 348 344 339
155 162 82 58 221 252 258 252 234 213 238 218 211 186 191 197 202 204 206 205 201 197 193 191 192 192 192 193 194 196 196 195 197 198 197 195 197 199 198 202 206 209 246 345 353 355 348 342 334
156 185 190 147 167 214 277 256 204 217 221 207 208 200 199 203 206 206 206 206 202 197 195 195 195 196 196 197 198 199 199 200 201 200 201 205 209 211 212 209 211 220 245 322 350 352 344 340 331
216 180 164 176 217 235 202 262 176 130 266 207 213 208 212 212 210 210 208 206 202 200 200 200 199 200 201 201 202 202 205 206 204 204 207 211 214 216 216 217 221 227 245 296 329 336 339 335 332